Location: Crescent
(42.8242°N, 73.7329°W)
Time: 05:06:49
(UTC+00:00)

Explorer 7 - Pass Details

Date: 16 February 2026
Orbit: 430 x 542 km, 50.2° (Epoch: 5 March)

Event Time Altitude Azimuth Distance (km) Brightness Sun altitude
Rises 03:22:47 0° 293° (WNW) 2,606 - -51.8°
Reaches altitude 10° 03:25:09 10° 282° (WNW) 1,738 - -52.1°
Maximum altitude 03:28:35 29° 222° (SW) 987 - -52.6°
Drops below altitude 10° 03:32:05 10° 162° (SSE) 1,777 - -53.0°
Sets 03:34:32 0° 151° (SSE) 2,676 - -53.3°
